VE3DVC Weather Reports


time (UTC)temp
C
wind
direction
speed
KPH
gust
KPH
rain 1hr
cm
rain 24hr
cm
rain mn
cm
humidity
%
barometer
mb
20260505211641 10 0 0.0 0.0 0.00 0.46 0.36 90 1007.6
20260505210440 10 0 0.0 1.6 0.00 0.46 0.36 90 1007.6
20260505204657 10 0 0.0 1.6 0.00 0.46 0.36 88 1007.6
20260505203456 11 0 0.0 6.4 0.00 0.46 0.36 86 1007.6
20260505201721 12 0 0.0 3.2 0.00 0.46 0.36 82 1007.2
20260505200521 13 313 3.2 6.4 0.00 0.46 0.36 78 1006.7
20260505195321 15 0 0.0 6.4 0.00 0.46 0.36 77 1006.7
20260505194121 15 0 0.0 4.8 0.00 0.46 0.36 76 1006.3
20260505192921 15 238 1.6 8.0 0.00 0.46 0.36 78 1006.3
20260505191721 15 0 0.0 4.8 0.00 0.46 0.36 78 1006.0
20260505185931 15 0 0.0 11.3 0.00 0.46 0.36 75 1005.8
20260505184730 15 228 1.6 8.0 0.00 0.46 0.36 75 1006.2
20260505183530 16 223 1.6 6.4 0.00 0.46 0.36 74 1006.1
20260505182330 16 0 0.0 4.8 0.00 0.43 0.36 74 1006.0
20260505180320 16 0 0.0 9.7 0.00 0.43 0.36 73 1006.1
20260505172250 16 259 3.2 11.3 0.00 0.43 0.36 75 1005.3
20260505171050 16 0 0.0 8.0 0.00 0.43 0.36 76 1005.1
20260505165851 16 0 0.0 9.7 0.00 0.43 0.36 79 1005.2
20260505164650 15 234 1.6 6.4 0.00 0.43 0.36 81 1005.3
20260505163450 15 259 1.6 9.7 0.00 0.43 0.36 82 1005.3
20260505162250 15 0 0.0 11.3 0.00 0.43 0.36 83 1005.4
20260505161051 15 0 0.0 6.4 0.00 0.43 0.36 82 1005.5
20260505152250 16 221 3.2 9.7 0.00 0.43 0.36 80 1004.0
20260505151050 16 153 1.6 12.9 0.00 0.43 0.36 80 1004.3
20260505124125 15 217 1.6 9.7 0.00 0.41 0.33 84 1002.4
20260505122925 14 185 1.6 6.4 0.00 0.41 0.33 86 1002.4
20260505121726 14 221 1.6 9.7 0.00 0.41 0.33 87 1002.4
20260505120526 13 0 0.0 6.4 0.00 0.41 0.33 89 1002.5
20260505114839 13 268 1.6 4.8 0.00 0.41 0.33 90 1002.4
20260505113639 13 0 0.0 6.4 0.00 0.41 0.33 89 1002.1
20260505112439 13 0 0.0 9.7 0.00 0.41 0.33 86 1001.8
20260505111239 15 230 1.6 12.9 0.00 0.38 0.30 82 1001.9
20260505101239 13 0 0.0 9.7 0.03 0.38 0.30 86 1001.0
20260505100039 13 0 0.0 3.2 0.00 0.36 0.28 87 1000.9
20260505094326 13 0 0.0 6.4 0.00 0.36 0.28 87 1000.5
20260505093126 13 0 0.0 3.2 0.03 0.36 0.28 87 1000.5
20260505090851 13 0 0.0 3.2 0.03 0.36 0.28 88 1000.1
20260505085650 13 0 0.0 4.8 0.03 0.36 0.28 88 1000.1
20260505083939 13 0 0.0 3.2 0.05 0.36 0.28 88 1000.1
20260505082425 14 0 0.0 4.8 0.03 0.33 0.25 88 999.9
20260505081225 14 0 0.0 3.2 0.05 0.33 0.25 90 999.9
20260505080026 14 0 0.0 6.4 0.05 0.30 0.23 90 999.9
20260505074825 13 0 0.0 8.0 0.05 0.30 0.23 91 1000.1
20260505073625 13 0 0.0 11.3 0.05 0.28 0.20 91 1000.2
20260505072425 13 0 0.0 4.8 0.05 0.28 0.20 91 1000.2
20260505070440 13 0 0.0 3.2 0.05 0.28 0.18 91 1000.1
20260505065241 13 0 0.0 6.4 0.05 0.25 0.18 91 1000.3
20260505064047 12 0 0.0 1.6 0.03 0.23 0.15 91 1000.7
20260505062032 12 0 0.0 0.0 0.03 0.20 0.13 91 1000.9
20260505060832 12 0 0.0 0.0 0.05 0.20 0.13 91 1001.1
20260505055632 13 0 0.0 0.0 0.03 0.18 0.10 91 1001.4
20260505054431 13 0 0.0 0.0 0.05 0.18 0.10 91 1001.5
20260505053232 13 0 0.0 0.0 0.03 0.18 0.08 91 1001.5
20260505052032 13 0 0.0 0.0 0.05 0.18 0.08 91 1001.5
20260505050511 13 0 0.0 0.0 0.05 0.15 0.08 91 1001.8
20260505040009 13 0 0.0 4.8 0.03 0.08 0.00 88 1003.0
20260505034809 14 0 0.0 4.8 0.03 0.08 0.00 87 1003.0
20260505033609 14 0 0.0 3.2 0.03 0.05 0.05 85 1002.6
20260505032408 15 0 0.0 8.0 0.05 0.05 0.05 82 1002.5
20260505031209 15 222 1.6 17.7 0.05 0.05 0.05 80 1002.6
20260505030009 15 0 0.0 4.8 0.05 0.05 0.05 83 1002.3
20260505024808 15 0 0.0 6.4 0.03 0.03 0.03 83 1002.4
20260505023608 16 149 1.6 11.3 0.00 0.00 0.00 81 1002.3
20260505021942 16 0 0.0 3.2 0.00 0.00 0.00 76 1001.9
20260505020741 16 0 0.0 3.2 0.00 0.00 0.00 75 1001.6
20260505015543 16 0 0.0 3.2 0.00 0.00 0.00 75 1001.6
20260505014342 16 0 0.0 6.4 0.00 0.00 0.00 74 1001.5
20260505013142 17 0 0.0 4.8 0.00 0.00 0.00 73 1001.7
20260505011145 17 0 0.0 8.0 0.00 0.00 0.00 70 1001.7
20260505005945 17 0 0.0 9.7 0.00 0.00 0.00 67 1001.6
20260505004745 18 0 0.0 11.3 0.00 0.00 0.00 64 1001.7
20260505003032 19 233 4.8 11.3 0.00 0.00 0.00 56 1002.1
20260505001832 19 0 0.0 6.4 0.00 0.00 0.00 55 1001.5
20260504235944 20 0 0.0 3.2 0.00 0.00 0.00 52 1001.4
20260504234743 20 0 0.0 9.7 0.00 0.00 0.00 50 1001.5
20260504233543 20 0 0.0 11.3 0.00 0.00 0.00 49 1001.5
20260504232344 21 199 1.6 14.5 0.00 0.00 0.00 47 1001.6
20260504231144 21 266 1.6 6.4 0.00 0.00 0.00 46 1001.9
20260504225944 21 209 1.6 11.3 0.00 0.00 0.00 45 1002.1
20260504224744 21 0 0.0 9.7 0.00 0.00 0.00 44 1002.3
20260504223544 21 0 0.0 17.7 0.00 0.00 0.00 42 1002.4
20260504222344 21 257 1.6 11.3 0.00 0.00 0.00 43 1002.6
20260504221144 21 0 0.0 12.9 0.00 0.00 0.00 43 1002.5
20260504215944 22 226 1.6 8.0 0.00 0.00 0.00 40 1002.5
20260504214744 22 217 1.6 12.9 0.00 0.00 0.00 37 1002.5
20260504213407 22 166 3.2 11.3 0.00 0.00 0.00 35 1002.5